Time,TemperatureF,DewpointF,PressureIn,WindDirection,WindDirectionDegrees,WindSpeedMPH,WindSpeedGustMPH,Humidity,HourlyPrecipIn,Conditions,Clouds,dailyrainin,SoftwareType,DateUTC
2013-01-28 00:00:00,16.2,4.4,30.45,WSW,258,0.0,0.0,59,0.00,,---,0.00,VWS V14.01,2013-01-28 05:00:00,
2013-01-28 00:03:00,16.2,4.4,30.45,WSW,258,0.0,0.0,59,0.00,,---,0.00,VWS V14.01,2013-01-28 05:03:00,
2013-01-28 00:08:00,16.4,5.0,30.45,WSW,258,0.0,0.0,60,0.00,,---,0.00,VWS V14.01,2013-01-28 05:08:00,
2013-01-28 00:13:00,16.4,5.7,30.45,WSW,258,0.0,0.0,62,0.00,,---,0.00,VWS V14.01,2013-01-28 05:13:00,
2013-01-28 00:18:00,16.5,5.8,30.44,WSW,258,0.0,0.0,62,0.00,,---,0.00,VWS V14.01,2013-01-28 05:18:00,
2013-01-28 00:23:00,16.4,6.4,30.44,WSW,258,0.0,0.0,64,0.00,,---,0.00,VWS V14.01,2013-01-28 05:23:00,
2013-01-28 00:28:00,16.4,6.0,30.44,WSW,258,0.0,0.0,63,0.00,,---,0.00,VWS V14.01,2013-01-28 05:28:00,
2013-01-28 00:33:00,16.2,5.5,30.44,WSW,258,0.0,1.0,62,0.00,,---,0.00,VWS V14.01,2013-01-28 05:33:00,
2013-01-28 00:38:00,16.2,5.5,30.44,WSW,258,0.0,0.0,62,0.00,,---,0.00,VWS V14.01,2013-01-28 05:38:00,
2013-01-28 00:43:00,16.2,5.8,30.44,WSW,258,0.0,0.0,63,0.00,,---,0.00,VWS V14.01,2013-01-28 05:43:00,
2013-01-28 00:48:00,16.2,6.2,30.44,WSW,258,0.0,0.0,64,0.00,,---,0.00,VWS V14.01,2013-01-28 05:48:00,
2013-01-28 00:53:00,16.1,6.1,30.44,WSW,258,0.0,0.0,64,0.00,,---,0.00,VWS V14.01,2013-01-28 05:53:00,
2013-01-28 00:58:00,16.1,6.1,30.44,WSW,258,0.0,0.0,64,0.00,,---,0.00,VWS V14.01,2013-01-28 05:58:00,
2013-01-28 01:03:00,16.1,6.1,30.44,WSW,258,0.0,0.0,64,0.00,,---,0.00,VWS V14.01,2013-01-28 06:03:00,
2013-01-28 01:08:00,15.9,5.9,30.44,WSW,258,0.0,0.0,64,0.00,,---,0.00,VWS V14.01,2013-01-28 06:08:00,
2013-01-28 01:13:00,15.9,6.2,30.44,WSW,258,0.0,0.0,65,0.00,,---,0.00,VWS V14.01,2013-01-28 06:13:00,
2013-01-28 01:18:00,15.9,6.6,30.43,WSW,258,0.0,0.0,66,0.00,,---,0.00,VWS V14.01,2013-01-28 06:18:00,
2013-01-28 01:23:00,15.7,6.4,30.43,WSW,258,0.0,0.0,66,0.00,,---,0.00,VWS V14.01,2013-01-28 06:23:00,
2013-01-28 01:28:00,15.7,6.4,30.43,WSW,258,0.0,0.0,66,0.00,,---,0.00,VWS V14.01,2013-01-28 06:28:00,
2013-01-28 01:33:00,15.6,6.3,30.44,WSW,258,0.0,0.0,66,0.00,,---,0.00,VWS V14.01,2013-01-28 06:33:00,
2013-01-28 01:38:00,15.6,6.3,30.44,WSW,258,0.0,0.0,66,0.00,,---,0.00,VWS V14.01,2013-01-28 06:38:00,
2013-01-28 01:43:00,15.6,6.3,30.44,WSW,258,0.0,0.0,66,0.00,,---,0.00,VWS V14.01,2013-01-28 06:43:00,
2013-01-28 01:48:00,15.6,6.3,30.44,WSW,258,0.0,0.0,66,0.00,,---,0.00,VWS V14.01,2013-01-28 06:48:00,
2013-01-28 01:53:00,15.6,5.9,30.44,WSW,258,0.0,0.0,65,0.00,,---,0.00,VWS V14.01,2013-01-28 06:53:00,
2013-01-28 01:58:00,15.6,5.9,30.44,WSW,258,0.0,0.0,65,0.00,,---,0.00,VWS V14.01,2013-01-28 06:58:00,
2013-01-28 02:03:00,15.6,5.9,30.44,WSW,258,0.0,0.0,65,0.00,,---,0.00,VWS V14.01,2013-01-28 07:03:00,
2013-01-28 02:08:00,15.6,5.9,30.44,WSW,258,0.0,0.0,65,0.00,,---,0.00,VWS V14.01,2013-01-28 07:08:00,
2013-01-28 02:13:00,15.6,6.3,30.44,WSW,258,0.0,1.0,66,0.00,,---,0.00,VWS V14.01,2013-01-28 07:13:00,
2013-01-28 02:18:00,15.7,6.4,30.44,WSW,258,0.0,0.0,66,0.00,,---,0.00,VWS V14.01,2013-01-28 07:18:00,
2013-01-28 02:23:00,15.7,6.7,30.44,WSW,258,0.0,0.0,67,0.00,,---,0.00,VWS V14.01,2013-01-28 07:23:00,
2013-01-28 02:28:00,15.7,6.4,30.44,WSW,258,0.0,0.0,66,0.00,,---,0.00,VWS V14.01,2013-01-28 07:28:00,
2013-01-28 02:33:00,15.7,6.4,30.43,WSW,258,0.0,0.0,66,0.00,,---,0.00,VWS V14.01,2013-01-28 07:33:00,
2013-01-28 02:38:00,15.7,6.4,30.43,WSW,258,0.0,0.0,66,0.00,,---,0.00,VWS V14.01,2013-01-28 07:38:00,
2013-01-28 02:43:00,15.7,6.4,30.43,WSW,258,0.0,0.0,66,0.00,,---,0.00,VWS V14.01,2013-01-28 07:43:00,
2013-01-28 02:48:00,15.9,6.2,30.44,WSW,258,0.0,0.0,65,0.00,,---,0.00,VWS V14.01,2013-01-28 07:48:00,
2013-01-28 02:53:00,15.9,6.2,30.44,West,260,0.0,0.0,65,0.00,,---,0.00,VWS V14.01,2013-01-28 07:53:00,
2013-01-28 02:58:00,16.1,6.4,30.44,West,260,0.0,0.0,65,0.00,,---,0.00,VWS V14.01,2013-01-28 07:58:00,
2013-01-28 03:03:00,16.2,6.2,30.43,West,260,0.0,0.0,64,0.00,,---,0.00,VWS V14.01,2013-01-28 08:03:00,
2013-01-28 03:08:00,16.4,6.4,30.43,West,260,0.0,0.0,64,0.00,,---,0.00,VWS V14.01,2013-01-28 08:08:00,
2013-01-28 03:13:00,16.5,7.1,30.43,West,260,0.0,1.0,66,0.00,,---,0.00,VWS V14.01,2013-01-28 08:13:00,
2013-01-28 03:18:00,16.7,7.0,30.43,West,260,0.0,1.0,65,0.00,,---,0.00,VWS V14.01,2013-01-28 08:18:00,
2013-01-28 03:23:00,16.9,7.2,30.43,West,260,0.0,0.0,65,0.00,,---,0.00,VWS V14.01,2013-01-28 08:23:00,
2013-01-28 03:28:00,16.9,7.5,30.43,West,260,0.0,0.0,66,0.00,,---,0.00,VWS V14.01,2013-01-28 08:28:00,
2013-01-28 03:33:00,17.0,7.6,30.43,West,260,0.0,0.0,66,0.00,,---,0.00,VWS V14.01,2013-01-28 08:33:00,
2013-01-28 03:38:00,17.0,7.6,30.43,West,260,0.0,0.0,66,0.00,,---,0.00,VWS V14.01,2013-01-28 08:38:00,
2013-01-28 03:43:00,17.2,7.8,30.43,West,260,0.0,0.0,66,0.00,,---,0.00,VWS V14.01,2013-01-28 08:43:00,
2013-01-28 03:48:00,17.2,7.5,30.43,West,260,0.0,0.0,65,0.00,,---,0.00,VWS V14.01,2013-01-28 08:48:00,
2013-01-28 03:53:00,17.0,7.3,30.43,West,260,0.0,0.0,65,0.00,,---,0.00,VWS V14.01,2013-01-28 08:53:00,
2013-01-28 03:58:00,17.0,7.3,30.43,West,260,0.0,0.0,65,0.00,,---,0.00,VWS V14.01,2013-01-28 08:58:00,
2013-01-28 04:03:00,16.9,7.2,30.43,West,260,0.0,0.0,65,0.00,,---,0.00,VWS V14.01,2013-01-28 09:03:00,
2013-01-28 04:08:00,16.9,7.2,30.43,West,260,0.0,0.0,65,0.00,,---,0.00,VWS V14.01,2013-01-28 09:08:00,
2013-01-28 04:13:00,16.9,6.5,30.43,West,260,0.0,0.0,63,0.00,,---,0.00,VWS V14.01,2013-01-28 09:13:00,
2013-01-28 04:18:00,16.9,6.8,30.43,West,260,0.0,0.0,64,0.00,,---,0.00,VWS V14.01,2013-01-28 09:18:00,
2013-01-28 04:23:00,16.7,6.7,30.43,West,260,0.0,0.0,64,0.00,,---,0.00,VWS V14.01,2013-01-28 09:23:00,
2013-01-28 04:28:00,16.7,7.3,30.43,West,260,0.0,0.0,66,0.00,,---,0.00,VWS V14.01,2013-01-28 09:28:00,
2013-01-28 04:33:00,16.7,7.3,30.42,West,260,0.0,0.0,66,0.00,,---,0.00,VWS V14.01,2013-01-28 09:33:00,
2013-01-28 04:38:00,16.7,7.3,30.42,West,260,0.0,0.0,66,0.00,,---,0.00,VWS V14.01,2013-01-28 09:38:00,
2013-01-28 04:43:00,16.7,7.3,30.42,West,260,0.0,0.0,66,0.00,,---,0.00,VWS V14.01,2013-01-28 09:43:00,
2013-01-28 04:48:00,16.7,7.7,30.42,West,260,0.0,0.0,67,0.00,,---,0.00,VWS V14.01,2013-01-28 09:48:00,
2013-01-28 04:53:00,16.7,7.7,30.42,West,260,0.0,0.0,67,0.00,,---,0.00,VWS V14.01,2013-01-28 09:53:00,
2013-01-28 04:58:00,16.7,7.7,30.42,West,260,0.0,0.0,67,0.00,,---,0.00,VWS V14.01,2013-01-28 09:58:00,
2013-01-28 05:03:00,16.7,7.3,30.42,West,260,0.0,0.0,66,0.00,,---,0.00,VWS V14.01,2013-01-28 10:03:00,
2013-01-28 05:08:00,16.7,7.7,30.42,West,260,0.0,0.0,67,0.00,,---,0.00,VWS V14.01,2013-01-28 10:08:00,
2013-01-28 05:13:00,16.5,7.5,30.42,West,260,0.0,0.0,67,0.00,,---,0.00,VWS V14.01,2013-01-28 10:13:00,
2013-01-28 05:18:00,16.5,7.5,30.42,West,260,0.0,0.0,67,0.00,,---,0.00,VWS V14.01,2013-01-28 10:18:00,
2013-01-28 05:23:00,16.5,7.8,30.42,West,260,0.0,0.0,68,0.00,,---,0.00,VWS V14.01,2013-01-28 10:23:00,
2013-01-28 05:28:00,16.5,7.8,30.42,West,260,0.0,0.0,68,0.00,,---,0.00,VWS V14.01,2013-01-28 10:28:00,
2013-01-28 05:33:00,16.4,7.7,30.42,West,260,0.0,0.0,68,0.00,,---,0.00,VWS V14.01,2013-01-28 10:33:00,
2013-01-28 05:38:00,16.2,7.5,30.42,West,260,0.0,0.0,68,0.00,,---,0.00,VWS V14.01,2013-01-28 10:38:00,
2013-01-28 05:43:00,16.1,7.4,30.42,West,260,0.0,0.0,68,0.00,,---,0.00,VWS V14.01,2013-01-28 10:43:00,
2013-01-28 05:48:00,16.1,7.4,30.42,West,260,0.0,0.0,68,0.00,,---,0.00,VWS V14.01,2013-01-28 10:48:00,
2013-01-28 05:53:00,15.9,7.2,30.42,West,260,0.0,0.0,68,0.00,,---,0.00,VWS V14.01,2013-01-28 10:53:00,
2013-01-28 05:58:00,15.9,7.2,30.42,West,260,0.0,0.0,68,0.00,,---,0.00,VWS V14.01,2013-01-28 10:58:00,
2013-01-28 06:03:00,15.9,7.2,30.41,West,260,0.0,0.0,68,0.00,,---,0.00,VWS V14.01,2013-01-28 11:03:00,
2013-01-28 06:08:00,15.7,7.3,30.41,West,260,0.0,0.0,69,0.00,,---,0.00,VWS V14.01,2013-01-28 11:08:00,
2013-01-28 06:13:00,15.7,7.3,30.41,West,260,0.0,0.0,69,0.00,,---,0.00,VWS V14.01,2013-01-28 11:13:00,
2013-01-28 06:18:00,15.6,7.3,30.41,West,260,0.0,0.0,69,0.00,,---,0.00,VWS V14.01,2013-01-28 11:18:00,
2013-01-28 06:23:00,15.4,7.1,30.41,West,260,0.0,0.0,69,0.00,,---,0.00,VWS V14.01,2013-01-28 11:23:00,
2013-01-28 06:28:00,15.2,6.9,30.41,West,260,0.0,0.0,69,0.00,,---,0.00,VWS V14.01,2013-01-28 11:28:00,
2013-01-28 06:33:00,15.2,7.2,30.42,West,260,0.0,0.0,70,0.00,,---,0.00,VWS V14.01,2013-01-28 11:33:00,
2013-01-28 06:38:00,15.1,7.1,30.42,West,260,0.0,0.0,70,0.00,,---,0.00,VWS V14.01,2013-01-28 11:38:00,
2013-01-28 06:43:00,15.2,7.5,30.42,West,260,0.0,0.0,71,0.00,,---,0.00,VWS V14.01,2013-01-28 11:43:00,
2013-01-28 06:48:00,15.2,7.8,30.41,West,260,0.0,0.0,72,0.00,,---,0.00,VWS V14.01,2013-01-28 11:48:00,
2013-01-28 06:53:00,15.2,7.8,30.41,West,260,0.0,0.0,72,0.00,,---,0.00,VWS V14.01,2013-01-28 11:53:00,
2013-01-28 06:59:00,15.2,7.8,30.41,West,260,0.0,0.0,72,0.00,,---,0.00,VWS V14.01,2013-01-28 11:59:00,
2013-01-28 07:04:00,15.4,8.3,30.41,West,260,0.0,0.0,73,0.00,,---,0.00,VWS V14.01,2013-01-28 12:04:00,
2013-01-28 07:09:00,15.4,8.3,30.41,West,260,0.0,0.0,73,0.00,,---,0.00,VWS V14.01,2013-01-28 12:09:00,
2013-01-28 07:14:00,15.4,8.6,30.41,West,260,0.0,0.0,74,0.00,,---,0.00,VWS V14.01,2013-01-28 12:14:00,
2013-01-28 07:19:00,15.4,8.6,30.41,West,260,0.0,0.0,74,0.00,,---,0.00,VWS V14.01,2013-01-28 12:19:00,
2013-01-28 07:24:00,15.6,8.8,30.41,West,260,0.0,0.0,74,0.00,,---,0.00,VWS V14.01,2013-01-28 12:24:00,
2013-01-28 07:29:00,15.6,8.8,30.41,West,260,0.0,0.0,74,0.00,,---,0.00,VWS V14.01,2013-01-28 12:29:00,
2013-01-28 07:34:00,15.7,8.9,30.41,West,260,0.0,0.0,74,0.00,,---,0.00,VWS V14.01,2013-01-28 12:34:00,
2013-01-28 07:39:00,15.9,9.1,30.41,West,260,0.0,0.0,74,0.00,,---,0.00,VWS V14.01,2013-01-28 12:39:00,
2013-01-28 07:44:00,16.1,9.6,30.41,West,260,0.0,0.0,75,0.00,,---,0.00,VWS V14.01,2013-01-28 12:44:00,
2013-01-28 07:49:00,16.2,9.7,30.41,West,260,0.0,0.0,75,0.00,,---,0.00,VWS V14.01,2013-01-28 12:49:00,
2013-01-28 07:54:00,16.4,9.9,30.41,West,260,0.0,0.0,75,0.00,,---,0.00,VWS V14.01,2013-01-28 12:54:00,
2013-01-28 07:59:00,16.7,10.2,30.41,West,260,0.0,0.0,75,0.00,,---,0.00,VWS V14.01,2013-01-28 12:59:00,
2013-01-28 08:04:00,17.2,10.9,30.41,West,260,0.0,0.0,76,0.00,,---,0.00,VWS V14.01,2013-01-28 13:04:00,
2013-01-28 08:09:00,17.5,10.9,30.41,West,260,0.0,0.0,75,0.00,,---,0.00,VWS V14.01,2013-01-28 13:09:00,
2013-01-28 08:14:00,17.8,11.2,30.41,West,260,0.0,0.0,75,0.00,,---,0.00,VWS V14.01,2013-01-28 13:14:00,
2013-01-28 08:19:00,18.3,11.7,30.41,West,260,0.0,0.0,75,0.00,,---,0.00,VWS V14.01,2013-01-28 13:19:00,
2013-01-28 08:24:00,18.6,12.0,30.41,West,260,0.0,0.0,75,0.00,,---,0.00,VWS V14.01,2013-01-28 13:24:00,
2013-01-28 08:29:00,18.8,12.2,30.41,West,260,0.0,0.0,75,0.00,,---,0.00,VWS V14.01,2013-01-28 13:29:00,
2013-01-28 08:34:00,19.2,12.0,30.41,West,260,0.0,0.0,73,0.00,,---,0.00,VWS V14.01,2013-01-28 13:34:00,
2013-01-28 08:39:00,19.9,12.3,30.41,West,260,0.0,0.0,72,0.00,,---,0.00,VWS V14.01,2013-01-28 13:39:00,
2013-01-28 08:44:00,20.2,12.6,30.41,West,260,0.0,0.0,72,0.00,,---,0.00,VWS V14.01,2013-01-28 13:44:00,
2013-01-28 08:49:00,21.1,13.5,30.41,West,260,0.0,0.0,72,0.00,,---,0.00,VWS V14.01,2013-01-28 13:49:00,
2013-01-28 08:54:00,21.6,14.0,30.41,West,260,0.0,0.0,72,0.00,,---,0.00,VWS V14.01,2013-01-28 13:54:00,
2013-01-28 08:59:00,22.1,11.4,30.41,West,260,0.0,0.0,63,0.00,,---,0.00,VWS V14.01,2013-01-28 13:59:00,
2013-01-28 09:04:00,22.9,11.8,30.40,West,260,0.0,0.0,62,0.00,,---,0.00,VWS V14.01,2013-01-28 14:04:00,
2013-01-28 09:09:00,23.5,10.5,30.40,West,260,0.0,0.0,57,0.00,,---,0.00,VWS V14.01,2013-01-28 14:09:00,
2013-01-28 09:14:00,23.9,10.5,30.40,West,260,0.0,0.0,56,0.00,,---,0.00,VWS V14.01,2013-01-28 14:14:00,
2013-01-28 09:19:00,24.5,11.1,30.40,West,260,0.0,0.0,56,0.00,,---,0.00,VWS V14.01,2013-01-28 14:19:00,
2013-01-28 09:24:00,25.1,11.6,30.40,West,260,0.0,0.0,56,0.00,,---,0.00,VWS V14.01,2013-01-28 14:24:00,
2013-01-28 09:29:00,25.6,10.0,30.40,West,260,0.0,0.0,51,0.00,,---,0.00,VWS V14.01,2013-01-28 14:29:00,
2013-01-28 09:34:00,26.0,10.4,30.40,West,260,0.0,0.0,51,0.00,,---,0.00,VWS V14.01,2013-01-28 14:34:00,
2013-01-28 09:35:00,26.6,10.9,30.40,West,260,0.0,0.0,51,0.00,,---,0.00,VWS V14.01,2013-01-28 14:35:00,
2013-01-28 09:39:00,26.7,9.2,30.40,West,260,0.0,0.0,47,0.00,,---,0.00,VWS V14.01,2013-01-28 14:39:00,
2013-01-28 09:40:00,27.0,9.5,30.40,West,260,0.0,0.0,47,0.00,,---,0.00,VWS V14.01,2013-01-28 14:40:00,
2013-01-28 09:44:00,27.5,9.9,30.40,West,260,0.0,0.0,47,0.00,,---,0.00,VWS V14.01,2013-01-28 14:44:00,
2013-01-28 09:45:00,27.6,10.0,30.40,West,260,1.0,1.0,47,0.00,,---,0.00,VWS V14.01,2013-01-28 14:45:00,
2013-01-28 09:49:00,27.9,8.8,30.40,West,260,0.0,1.0,44,0.00,,---,0.00,VWS V14.01,2013-01-28 14:49:00,
2013-01-28 09:50:00,28.2,9.6,30.40,West,260,1.0,2.0,45,0.00,,---,0.00,VWS V14.01,2013-01-28 14:50:00,
2013-01-28 09:54:00,28.5,8.9,30.40,West,260,0.0,1.0,43,0.00,,---,0.00,VWS V14.01,2013-01-28 14:54:00,
2013-01-28 09:55:00,28.7,9.1,30.40,West,260,0.0,1.0,43,0.00,,---,0.00,VWS V14.01,2013-01-28 14:55:00,
2013-01-28 09:59:00,29.0,9.3,30.40,West,260,0.0,0.0,43,0.00,,---,0.00,VWS V14.01,2013-01-28 14:59:00,
2013-01-28 10:00:00,29.0,9.3,30.39,West,260,0.0,0.0,43,0.00,,---,0.00,VWS V14.01,2013-01-28 15:00:00,
2013-01-28 10:04:00,29.4,9.2,30.39,West,260,0.0,0.0,42,0.00,,---,0.00,VWS V14.01,2013-01-28 15:04:00,
2013-01-28 10:05:00,29.4,9.2,30.39,West,260,0.0,0.0,42,0.00,,---,0.00,VWS V14.01,2013-01-28 15:05:00,
2013-01-28 10:09:00,29.7,9.4,30.39,West,260,0.0,2.0,42,0.00,,---,0.00,VWS V14.01,2013-01-28 15:09:00,
2013-01-28 10:10:00,29.8,9.5,30.39,West,260,0.0,2.0,42,0.00,,---,0.00,VWS V14.01,2013-01-28 15:10:00,
2013-01-28 10:14:00,30.0,7.5,30.39,SSW,193,1.0,3.0,38,0.00,,---,0.00,VWS V14.01,2013-01-28 15:14:00,
2013-01-28 10:15:00,30.0,7.5,30.39,SSW,195,2.0,3.0,38,0.00,,---,0.00,VWS V14.01,2013-01-28 15:15:00,
2013-01-28 10:19:00,30.1,7.6,30.39,SSW,195,1.0,2.0,38,0.00,,---,0.00,VWS V14.01,2013-01-28 15:19:00,
2013-01-28 10:20:00,30.1,8.1,30.39,SSW,196,1.0,4.0,39,0.00,,---,0.00,VWS V14.01,2013-01-28 15:20:00,
2013-01-28 10:24:00,30.3,8.3,30.39,SSW,210,3.0,6.0,39,0.00,,---,0.00,VWS V14.01,2013-01-28 15:24:00,
2013-01-28 10:25:00,30.4,8.4,30.39,SSW,203,5.0,6.0,39,0.00,,---,0.00,VWS V14.01,2013-01-28 15:25:00,
2013-01-28 10:29:00,30.6,7.4,30.39,SSW,203,3.0,5.0,37,0.00,,---,0.00,VWS V14.01,2013-01-28 15:29:00,
2013-01-28 10:30:00,30.6,7.4,30.39,SSW,202,3.0,5.0,37,0.00,,---,0.00,VWS V14.01,2013-01-28 15:30:00,
2013-01-28 10:34:00,30.7,6.9,30.39,SSW,202,0.0,3.0,36,0.00,,---,0.00,VWS V14.01,2013-01-28 15:34:00,
2013-01-28 10:35:00,30.7,6.9,30.39,SSW,202,2.0,3.0,36,0.00,,---,0.00,VWS V14.01,2013-01-28 15:35:00,
2013-01-28 10:39:00,30.7,7.5,30.39,SSW,202,0.0,4.0,37,0.00,,---,0.00,VWS V14.01,2013-01-28 15:39:00,
2013-01-28 10:40:00,30.9,6.5,30.39,SSW,202,0.0,4.0,35,0.00,,---,0.00,VWS V14.01,2013-01-28 15:40:00,
2013-01-28 10:44:00,30.9,7.1,30.39,SSW,202,0.0,2.0,36,0.00,,---,0.00,VWS V14.01,2013-01-28 15:44:00,
2013-01-28 10:45:00,31.0,7.2,30.38,SSW,202,0.0,2.0,36,0.00,,---,0.00,VWS V14.01,2013-01-28 15:45:00,
2013-01-28 10:49:00,31.2,7.4,30.38,SSW,202,0.0,2.0,36,0.00,,---,0.00,VWS V14.01,2013-01-28 15:49:00,
2013-01-28 10:50:00,31.2,7.4,30.38,SSW,202,1.0,2.0,36,0.00,,---,0.00,VWS V14.01,2013-01-28 15:50:00,
2013-01-28 10:54:00,31.3,7.5,30.38,SSW,202,0.0,2.0,36,0.00,,---,0.00,VWS V14.01,2013-01-28 15:54:00,
2013-01-28 10:55:00,31.3,7.5,30.38,SSW,202,1.0,2.0,36,0.00,,---,0.00,VWS V14.01,2013-01-28 15:55:00,
2013-01-28 10:59:00,31.3,7.5,30.38,SSW,202,1.0,3.0,36,0.00,,---,0.00,VWS V14.01,2013-01-28 15:59:00,
2013-01-28 11:00:00,31.3,6.8,30.37,SSW,202,3.0,4.0,35,0.00,,---,0.00,VWS V14.01,2013-01-28 16:00:00,
2013-01-28 11:04:00,31.5,7.0,30.37,SSW,202,0.0,3.0,35,0.00,,---,0.00,VWS V14.01,2013-01-28 16:04:00,
2013-01-28 11:05:00,31.5,6.4,30.37,SSW,209,5.0,5.0,34,0.00,,---,0.00,VWS V14.01,2013-01-28 16:05:00,
2013-01-28 11:09:00,31.5,8.2,30.37,SSW,209,0.0,5.0,37,0.00,,---,0.00,VWS V14.01,2013-01-28 16:09:00,
2013-01-28 11:10:00,31.6,8.3,30.37,SSW,213,5.0,5.0,37,0.00,,---,0.00,VWS V14.01,2013-01-28 16:10:00,
2013-01-28 11:14:00,31.6,8.3,30.37,SW,215,1.0,5.0,37,0.00,,---,0.00,VWS V14.01,2013-01-28 16:14:00,
2013-01-28 11:15:00,31.8,8.5,30.36,SW,215,0.0,5.0,37,0.00,,---,0.00,VWS V14.01,2013-01-28 16:15:00,
2013-01-28 11:19:00,31.8,8.5,30.36,SW,215,1.0,2.0,37,0.00,,---,0.00,VWS V14.01,2013-01-28 16:19:00,
2013-01-28 11:20:00,31.9,8.6,30.36,SW,215,0.0,3.0,37,0.00,,---,0.00,VWS V14.01,2013-01-28 16:20:00,
2013-01-28 11:24:00,31.9,8.0,30.36,SSW,208,3.0,6.0,36,0.00,,---,0.00,VWS V14.01,2013-01-28 16:24:00,
2013-01-28 11:25:00,31.9,8.0,30.36,SSW,208,1.0,6.0,36,0.00,,---,0.00,VWS V14.01,2013-01-28 16:25:00,
2013-01-28 11:29:00,31.9,8.6,30.36,SSW,208,2.0,3.0,37,0.00,,---,0.00,VWS V14.01,2013-01-28 16:29:00,
2013-01-28 11:30:00,31.9,8.6,30.35,SSW,208,0.0,3.0,37,0.00,,---,0.00,VWS V14.01,2013-01-28 16:30:00,
2013-01-28 11:34:00,31.9,9.2,30.35,SSW,208,0.0,3.0,38,0.00,,---,0.00,VWS V14.01,2013-01-28 16:34:00,
2013-01-28 11:35:00,31.9,8.6,30.35,SSW,208,1.0,3.0,37,0.00,,---,0.00,VWS V14.01,2013-01-28 16:35:00,
2013-01-28 11:39:00,32.1,8.2,30.35,SSW,208,2.0,3.0,36,0.00,,---,0.00,VWS V14.01,2013-01-28 16:39:00,
2013-01-28 11:40:00,32.1,8.2,30.35,SSW,208,2.0,3.0,36,0.00,,---,0.00,VWS V14.01,2013-01-28 16:40:00,
2013-01-28 11:44:00,32.2,7.0,30.35,SSW,208,2.0,3.0,34,0.00,,---,0.00,VWS V14.01,2013-01-28 16:44:00,
2013-01-28 11:45:00,32.2,7.6,30.33,West,270,0.0,5.0,35,0.00,,---,0.00,VWS V14.01,2013-01-28 16:45:00,
2013-01-28 11:49:00,32.2,8.3,30.33,South,185,3.0,3.0,36,0.00,,---,0.00,VWS V14.01,2013-01-28 16:49:00,
2013-01-28 11:50:00,32.2,7.6,30.33,South,188,3.0,3.0,35,0.00,,---,0.00,VWS V14.01,2013-01-28 16:50:00,
2013-01-28 11:54:00,32.2,7.0,30.33,South,188,3.0,6.0,34,0.00,,---,0.00,VWS V14.01,2013-01-28 16:54:00,
2013-01-28 11:55:00,32.2,7.0,30.33,South,188,2.0,6.0,34,0.00,,---,0.00,VWS V14.01,2013-01-28 16:55:00,
2013-01-28 11:59:00,32.2,7.6,30.33,South,174,2.0,6.0,35,0.00,,---,0.00,VWS V14.01,2013-01-28 16:59:00,
2013-01-28 12:00:00,32.2,7.6,30.33,South,181,3.0,6.0,35,0.00,,---,0.00,VWS V14.01,2013-01-28 17:00:00,
2013-01-28 12:04:00,32.2,7.6,30.33,South,182,3.0,5.0,35,0.00,,---,0.00,VWS V14.01,2013-01-28 17:04:00,
2013-01-28 12:05:00,32.2,7.6,30.33,SW,216,6.0,6.0,35,0.00,,---,0.00,VWS V14.01,2013-01-28 17:05:00,
2013-01-28 12:09:00,32.2,8.3,30.33,SW,216,0.0,6.0,36,0.00,,---,0.00,VWS V14.01,2013-01-28 17:09:00,
2013-01-28 12:10:00,32.2,9.5,30.33,SW,216,2.0,6.0,38,0.00,,---,0.00,VWS V14.01,2013-01-28 17:10:00,
2013-01-28 12:14:00,32.2,8.3,30.33,SW,216,2.0,5.0,36,0.00,,---,0.00,VWS V14.01,2013-01-28 17:14:00,
2013-01-28 12:15:00,32.2,9.5,30.31,SW,216,2.0,5.0,38,0.00,,---,0.00,VWS V14.01,2013-01-28 17:15:00,
2013-01-28 12:19:00,32.2,10.0,30.31,SW,219,0.0,3.0,39,0.00,,---,0.00,VWS V14.01,2013-01-28 17:19:00,
2013-01-28 12:20:00,32.4,10.2,30.31,SW,219,0.0,3.0,39,0.00,,---,0.00,VWS V14.01,2013-01-28 17:20:00,
2013-01-28 12:24:00,32.5,9.7,30.31,SE,137,0.0,6.0,38,0.00,,---,0.00,VWS V14.01,2013-01-28 17:24:00,
2013-01-28 12:25:00,32.5,9.7,30.31,SE,137,1.0,6.0,38,0.00,,---,0.00,VWS V14.01,2013-01-28 17:25:00,
2013-01-28 12:29:00,32.5,9.7,30.31,SE,137,0.0,3.0,38,0.00,,---,0.00,VWS V14.01,2013-01-28 17:29:00,
2013-01-28 12:30:00,32.7,9.9,30.29,SE,140,1.0,3.0,38,0.00,,---,0.00,VWS V14.01,2013-01-28 17:30:00,
2013-01-28 12:34:00,32.7,11.6,30.29,SE,140,1.0,3.0,41,0.00,,---,0.00,VWS V14.01,2013-01-28 17:34:00,
2013-01-28 12:35:00,32.8,11.7,30.29,SE,140,2.0,3.0,41,0.00,,---,0.00,VWS V14.01,2013-01-28 17:35:00,
2013-01-28 12:39:00,32.9,10.7,30.29,SE,140,3.0,3.0,39,0.00,,---,0.00,VWS V14.01,2013-01-28 17:39:00,
2013-01-28 12:40:00,33.1,11.4,30.29,SSW,205,0.0,5.0,40,0.00,,---,0.00,VWS V14.01,2013-01-28 17:40:00,
2013-01-28 12:44:00,33.2,12.1,30.29,WSW,251,0.0,5.0,41,0.00,,---,0.00,VWS V14.01,2013-01-28 17:44:00,
2013-01-28 12:45:00,33.2,12.1,30.29,SW,229,1.0,5.0,41,0.00,,---,0.00,VWS V14.01,2013-01-28 17:45:00,
2013-01-28 12:49:00,33.4,11.1,30.29,South,181,3.0,5.0,39,0.00,,---,0.00,VWS V14.01,2013-01-28 17:49:00,
2013-01-28 12:50:00,33.4,11.1,30.29,South,182,2.0,5.0,39,0.00,,---,0.00,VWS V14.01,2013-01-28 17:50:00,
2013-01-28 12:54:00,33.5,11.8,30.29,South,182,3.0,3.0,40,0.00,,---,0.00,VWS V14.01,2013-01-28 17:54:00,
2013-01-28 12:55:00,33.5,12.3,30.29,SW,233,5.0,5.0,41,0.00,,---,0.00,VWS V14.01,2013-01-28 17:55:00,
2013-01-28 12:59:00,33.5,12.9,30.29,SW,216,2.0,5.0,42,0.00,,---,0.00,VWS V14.01,2013-01-28 17:59:00,
2013-01-28 13:00:00,33.5,12.3,30.28,SW,222,2.0,5.0,41,0.00,,---,0.00,VWS V14.01,2013-01-28 18:00:00,
2013-01-28 13:04:00,33.7,13.1,30.28,South,191,0.0,7.0,42,0.00,,---,0.00,VWS V14.01,2013-01-28 18:04:00,
2013-01-28 13:05:00,33.7,13.1,30.28,South,191,1.0,7.0,42,0.00,,---,0.00,VWS V14.01,2013-01-28 18:05:00,
2013-01-28 13:09:00,33.7,13.1,30.28,South,191,0.0,3.0,42,0.00,,---,0.00,VWS V14.01,2013-01-28 18:09:00,
2013-01-28 13:10:00,33.7,13.1,30.28,South,191,0.0,3.0,42,0.00,,---,0.00,VWS V14.01,2013-01-28 18:10:00,
2013-01-28 13:14:00,33.7,12.0,30.28,South,191,3.0,6.0,40,0.00,,---,0.00,VWS V14.01,2013-01-28 18:14:00,
2013-01-28 13:15:00,33.7,12.0,30.26,South,191,3.0,6.0,40,0.00,,---,0.00,VWS V14.01,2013-01-28 18:15:00,
2013-01-28 13:19:00,33.7,12.0,30.26,South,191,0.0,5.0,40,0.00,,---,0.00,VWS V14.01,2013-01-28 18:19:00,
2013-01-28 13:20:00,33.7,12.5,30.26,South,191,1.0,5.0,41,0.00,,---,0.00,VWS V14.01,2013-01-28 18:20:00,
2013-01-28 13:24:00,33.7,13.6,30.26,South,191,0.0,2.0,43,0.00,,---,0.00,VWS V14.01,2013-01-28 18:24:00,
2013-01-28 13:25:00,33.7,13.6,30.26,South,191,0.0,4.0,43,0.00,,---,0.00,VWS V14.01,2013-01-28 18:25:00,
2013-01-28 13:29:00,33.5,13.9,30.26,South,191,0.0,5.0,44,0.00,,---,0.00,VWS V14.01,2013-01-28 18:29:00,
2013-01-28 13:30:00,33.5,13.4,30.25,South,191,2.0,5.0,43,0.00,,---,0.00,VWS V14.01,2013-01-28 18:30:00,
2013-01-28 13:34:00,33.5,14.9,30.25,SW,223,0.0,5.0,46,0.00,,---,0.00,VWS V14.01,2013-01-28 18:34:00,
2013-01-28 13:35:00,33.5,15.4,30.25,SSW,208,2.0,6.0,47,0.00,,---,0.00,VWS V14.01,2013-01-28 18:35:00,
2013-01-28 13:39:00,33.4,15.4,30.25,South,189,7.0,7.0,47,0.00,,---,0.00,VWS V14.01,2013-01-28 18:39:00,
2013-01-28 13:40:00,33.4,16.3,30.25,SW,227,3.0,7.0,49,0.00,,---,0.00,VWS V14.01,2013-01-28 18:40:00,
2013-01-28 13:44:00,33.4,16.3,30.25,SW,234,6.0,7.0,49,0.00,,---,0.00,VWS V14.01,2013-01-28 18:44:00,
2013-01-28 13:45:00,33.2,17.5,30.25,SW,233,0.0,7.0,52,0.00,,---,0.00,VWS V14.01,2013-01-28 18:45:00,
2013-01-28 13:49:00,33.2,17.0,30.25,WSW,237,3.0,6.0,51,0.00,,---,0.00,VWS V14.01,2013-01-28 18:49:00,
2013-01-28 13:50:00,33.2,18.4,30.25,SW,223,6.0,6.0,54,0.00,,---,0.00,VWS V14.01,2013-01-28 18:50:00,
2013-01-28 13:54:00,33.1,18.3,30.25,WSW,246,5.0,12.0,54,0.00,,---,0.00,VWS V14.01,2013-01-28 18:54:00,
2013-01-28 13:55:00,33.1,18.3,30.25,WSW,253,0.0,12.0,54,0.00,,---,0.00,VWS V14.01,2013-01-28 18:55:00,
2013-01-28 13:59:00,33.1,20.7,30.25,South,181,6.0,7.0,60,0.00,,---,0.00,VWS V14.01,2013-01-28 18:59:00,
2013-01-28 14:00:00,32.9,20.5,30.24,SSW,202,0.0,7.0,60,0.00,,---,0.00,VWS V14.01,2013-01-28 19:00:00,
2013-01-28 14:04:00,32.8,21.2,30.24,South,188,1.0,5.0,62,0.00,,---,0.00,VWS V14.01,2013-01-28 19:04:00,
2013-01-28 14:05:00,32.8,21.6,30.24,South,188,3.0,5.0,63,0.00,,---,0.00,VWS V14.01,2013-01-28 19:05:00,
2013-01-28 14:09:00,32.5,22.1,30.24,SSW,212,2.0,5.0,65,0.00,,---,0.00,VWS V14.01,2013-01-28 19:09:00,
2013-01-28 14:10:00,32.4,22.7,30.24,SSW,212,2.0,5.0,67,0.00,,---,0.00,VWS V14.01,2013-01-28 19:10:00,
2013-01-28 14:14:00,32.4,23.0,30.24,SSW,212,0.0,3.0,68,0.00,,---,0.00,VWS V14.01,2013-01-28 19:14:00,
2013-01-28 14:15:00,32.4,23.0,30.23,SSW,212,5.0,5.0,68,0.00,,---,0.00,VWS V14.01,2013-01-28 19:15:00,
2013-01-28 14:19:00,32.1,23.8,30.23,SSW,212,1.0,5.0,71,0.00,,---,0.00,VWS V14.01,2013-01-28 19:19:00,
2013-01-28 14:20:00,31.9,23.9,30.23,SSW,212,1.0,5.0,72,0.00,,---,0.00,VWS V14.01,2013-01-28 19:20:00,
2013-01-28 14:24:00,31.9,23.9,30.23,SSW,212,1.0,3.0,72,0.00,,---,0.00,VWS V14.01,2013-01-28 19:24:00,
2013-01-28 14:25:00,31.8,24.5,30.23,SW,234,3.0,7.0,74,0.00,,---,0.00,VWS V14.01,2013-01-28 19:25:00,
2013-01-28 14:29:00,31.6,24.9,30.23,WSW,241,0.0,5.0,76,0.00,,---,0.00,VWS V14.01,2013-01-28 19:29:00,
2013-01-28 14:30:00,31.5,24.8,30.22,WSW,240,3.0,5.0,76,0.00,,---,0.00,VWS V14.01,2013-01-28 19:30:00,
2013-01-28 14:34:00,31.3,24.6,30.22,WSW,240,1.0,3.0,76,0.00,,---,0.00,VWS V14.01,2013-01-28 19:34:00,
2013-01-28 14:35:00,31.2,24.8,30.22,WSW,240,0.0,3.0,77,0.00,,---,0.00,VWS V14.01,2013-01-28 19:35:00,
2013-01-28 14:39:00,31.0,25.0,30.22,WSW,240,0.0,0.0,78,0.00,,---,0.00,VWS V14.01,2013-01-28 19:39:00,
2013-01-28 14:40:00,31.0,25.0,30.22,WSW,240,0.0,2.0,78,0.00,,---,0.00,VWS V14.01,2013-01-28 19:40:00,
2013-01-28 14:44:00,30.9,25.2,30.22,WSW,240,0.0,0.0,79,0.00,,---,0.00,VWS V14.01,2013-01-28 19:44:00,
2013-01-28 14:45:00,30.9,25.5,30.22,WSW,240,0.0,1.0,80,0.00,,---,0.00,VWS V14.01,2013-01-28 19:45:00,
2013-01-28 14:49:00,30.9,25.5,30.22,WSW,240,1.0,2.0,80,0.00,,---,0.00,VWS V14.01,2013-01-28 19:49:00,
2013-01-28 14:50:00,30.9,25.5,30.22,WSW,240,3.0,3.0,80,0.00,,---,0.00,VWS V14.01,2013-01-28 19:50:00,
2013-01-28 14:54:00,30.7,25.3,30.22,WSW,240,2.0,5.0,80,0.00,,---,0.00,VWS V14.01,2013-01-28 19:54:00,
2013-01-28 14:55:00,30.6,25.2,30.22,WSW,240,0.0,5.0,80,0.00,,---,0.00,VWS V14.01,2013-01-28 19:55:00,
2013-01-28 14:59:00,30.6,25.2,30.22,WSW,240,0.0,1.0,80,0.00,,---,0.00,VWS V14.01,2013-01-28 19:59:00,
2013-01-28 15:00:00,30.6,25.2,30.21,WSW,240,2.0,3.0,80,0.00,,---,0.00,VWS V14.01,2013-01-28 20:00:00,
2013-01-28 15:04:00,30.4,25.0,30.21,WSW,240,0.0,2.0,80,0.00,,---,0.00,VWS V14.01,2013-01-28 20:04:00,
2013-01-28 15:05:00,30.3,24.9,30.21,WSW,240,1.0,2.0,80,0.00,,---,0.00,VWS V14.01,2013-01-28 20:05:00,
2013-01-28 15:09:00,30.3,24.9,30.21,WSW,240,0.0,1.0,80,0.00,,---,0.00,VWS V14.01,2013-01-28 20:09:00,
2013-01-28 15:10:00,30.3,24.9,30.21,WSW,240,0.0,1.0,80,0.00,,---,0.00,VWS V14.01,2013-01-28 20:10:00,
2013-01-28 15:14:00,30.1,25.6,30.21,WSW,240,0.0,0.0,83,0.00,,---,0.00,VWS V14.01,2013-01-28 20:14:00,
2013-01-28 15:15:00,30.1,25.6,30.19,WSW,240,0.0,0.0,83,0.00,,---,0.00,VWS V14.01,2013-01-28 20:15:00,
2013-01-28 15:19:00,30.1,25.6,30.19,WSW,240,0.0,0.0,83,0.00,,---,0.00,VWS V14.01,2013-01-28 20:19:00,
2013-01-28 15:20:00,30.0,25.5,30.19,WSW,240,0.0,2.0,83,0.00,,---,0.00,VWS V14.01,2013-01-28 20:20:00,
2013-01-28 15:24:00,29.8,25.9,30.19,WSW,240,0.0,0.0,85,0.00,,---,0.00,VWS V14.01,2013-01-28 20:24:00,
2013-01-28 15:25:00,29.8,25.9,30.19,WSW,240,0.0,0.0,85,0.00,,---,0.00,VWS V14.01,2013-01-28 20:25:00,
2013-01-28 15:29:00,29.7,26.0,30.19,WSW,240,0.0,2.0,86,0.00,,---,0.00,VWS V14.01,2013-01-28 20:29:00,
2013-01-28 15:30:00,29.7,26.0,30.16,WSW,240,0.0,2.0,86,0.00,,---,0.00,VWS V14.01,2013-01-28 20:30:00,
2013-01-28 15:34:00,29.7,26.3,30.16,WSW,240,0.0,0.0,87,0.00,,---,0.00,VWS V14.01,2013-01-28 20:34:00,
2013-01-28 15:35:00,29.7,26.3,30.16,WSW,240,2.0,2.0,87,0.00,,---,0.00,VWS V14.01,2013-01-28 20:35:00,
2013-01-28 15:39:00,29.5,26.1,30.16,WSW,240,0.0,2.0,87,0.00,,---,0.00,VWS V14.01,2013-01-28 20:39:00,
2013-01-28 15:40:00,29.7,26.6,30.16,WSW,240,1.0,2.0,88,0.00,,---,0.00,VWS V14.01,2013-01-28 20:40:00,
2013-01-28 15:44:00,29.5,26.4,30.16,WSW,237,0.0,2.0,88,0.00,,---,0.00,VWS V14.01,2013-01-28 20:44:00,
2013-01-28 15:45:00,29.5,26.4,30.15,WSW,237,0.0,2.0,88,0.00,,---,0.00,VWS V14.01,2013-01-28 20:45:00,
2013-01-28 15:49:00,29.5,26.4,30.15,WSW,237,0.0,0.0,88,0.00,,---,0.00,VWS V14.01,2013-01-28 20:49:00,
2013-01-28 15:50:00,29.5,26.4,30.15,WSW,237,0.0,0.0,88,0.00,,---,0.00,VWS V14.01,2013-01-28 20:50:00,
2013-01-28 15:54:00,29.5,26.4,30.15,WSW,237,0.0,0.0,88,0.00,,---,0.00,VWS V14.01,2013-01-28 20:54:00,
2013-01-28 15:55:00,29.5,26.7,30.15,WSW,237,0.0,0.0,89,0.00,,---,0.00,VWS V14.01,2013-01-28 20:55:00,
2013-01-28 15:59:00,29.5,26.7,30.15,WSW,237,0.0,0.0,89,0.00,,---,0.00,VWS V14.01,2013-01-28 20:59:00,
2013-01-28 16:00:00,29.5,26.7,30.15,WSW,237,0.0,0.0,89,0.00,,---,0.00,VWS V14.01,2013-01-28 21:00:00,
2013-01-28 16:04:00,29.5,26.7,30.15,WSW,237,0.0,0.0,89,0.00,,---,0.00,VWS V14.01,2013-01-28 21:04:00,
2013-01-28 16:05:00,29.5,26.7,30.15,WSW,237,0.0,0.0,89,0.00,,---,0.00,VWS V14.01,2013-01-28 21:05:00,
2013-01-28 16:09:00,29.5,26.7,30.15,WSW,237,0.0,0.0,89,0.00,,---,0.00,VWS V14.01,2013-01-28 21:09:00,
2013-01-28 16:10:00,29.4,26.8,30.15,WSW,237,0.0,0.0,90,0.00,,---,0.00,VWS V14.01,2013-01-28 21:10:00,
2013-01-28 16:14:00,29.4,26.8,30.15,WSW,237,0.0,0.0,90,0.00,,---,0.00,VWS V14.01,2013-01-28 21:14:00,
2013-01-28 16:15:00,29.4,26.8,30.14,WSW,237,0.0,0.0,90,0.00,,---,0.00,VWS V14.01,2013-01-28 21:15:00,
2013-01-28 16:19:00,29.4,26.8,30.14,WSW,237,1.0,2.0,90,0.00,,---,0.00,VWS V14.01,2013-01-28 21:19:00,
2013-01-28 16:20:00,29.4,26.8,30.14,WSW,237,0.0,2.0,90,0.00,,---,0.00,VWS V14.01,2013-01-28 21:20:00,
2013-01-28 16:24:00,29.4,26.8,30.14,WSW,237,0.0,0.0,90,0.00,,---,0.00,VWS V14.01,2013-01-28 21:24:00,
2013-01-28 16:25:00,29.4,26.8,30.14,WSW,237,0.0,0.0,90,0.00,,---,0.00,VWS V14.01,2013-01-28 21:25:00,
2013-01-28 16:29:00,29.4,26.8,30.14,WSW,237,0.0,0.0,90,0.00,,---,0.00,VWS V14.01,2013-01-28 21:29:00,
2013-01-28 16:30:00,29.4,26.8,30.15,WSW,237,0.0,0.0,90,0.00,,---,0.00,VWS V14.01,2013-01-28 21:30:00,
2013-01-28 16:34:00,29.4,26.8,30.15,WSW,237,0.0,0.0,90,0.00,,---,0.00,VWS V14.01,2013-01-28 21:34:00,
2013-01-28 16:35:00,29.4,27.1,30.15,WSW,237,0.0,0.0,91,0.00,,---,0.00,VWS V14.01,2013-01-28 21:35:00,
2013-01-28 16:39:00,29.4,27.1,30.15,WSW,237,0.0,0.0,91,0.00,,---,0.00,VWS V14.01,2013-01-28 21:39:00,
2013-01-28 16:40:00,29.4,27.1,30.15,WSW,237,0.0,0.0,91,0.00,,---,0.00,VWS V14.01,2013-01-28 21:40:00,
2013-01-28 16:44:00,29.4,27.1,30.15,WSW,237,0.0,0.0,91,0.00,,---,0.00,VWS V14.01,2013-01-28 21:44:00,
2013-01-28 16:45:00,29.4,27.1,30.14,WSW,237,0.0,0.0,91,0.00,,---,0.00,VWS V14.01,2013-01-28 21:45:00,
2013-01-28 16:49:00,29.4,27.1,30.14,WSW,237,0.0,0.0,91,0.00,,---,0.00,VWS V14.01,2013-01-28 21:49:00,
2013-01-28 16:50:00,29.4,27.1,30.14,WSW,237,0.0,0.0,91,0.00,,---,0.00,VWS V14.01,2013-01-28 21:50:00,
2013-01-28 16:54:00,29.4,27.1,30.14,WSW,237,0.0,1.0,91,0.00,,---,0.00,VWS V14.01,2013-01-28 21:54:00,
2013-01-28 16:55:00,29.4,27.1,30.14,WSW,237,0.0,1.0,91,0.00,,---,0.00,VWS V14.01,2013-01-28 21:55:00,
2013-01-28 16:59:00,29.4,27.1,30.14,WSW,237,2.0,2.0,91,0.00,,---,0.00,VWS V14.01,2013-01-28 21:59:00,
2013-01-28 17:00:00,29.4,27.1,30.14,WSW,237,2.0,2.0,91,0.00,,---,0.00,VWS V14.01,2013-01-28 22:00:00,
2013-01-28 17:04:00,29.4,27.1,30.14,WSW,237,2.0,2.0,91,0.00,,---,0.00,VWS V14.01,2013-01-28 22:04:00,
2013-01-28 17:05:00,29.4,27.1,30.14,WSW,239,2.0,3.0,91,0.00,,---,0.00,VWS V14.01,2013-01-28 22:05:00,
2013-01-28 17:09:00,29.4,27.1,30.14,WSW,239,0.0,2.0,91,0.00,,---,0.00,VWS V14.01,2013-01-28 22:09:00,
2013-01-28 17:10:00,29.4,27.4,30.14,WSW,237,1.0,2.0,92,0.00,,---,0.00,VWS V14.01,2013-01-28 22:10:00,
2013-01-28 17:14:00,29.4,27.4,30.14,WSW,237,0.0,2.0,92,0.00,,---,0.00,VWS V14.01,2013-01-28 22:14:00,
2013-01-28 17:15:00,29.4,27.4,30.14,WSW,237,0.0,2.0,92,0.00,,---,0.00,VWS V14.01,2013-01-28 22:15:00,
2013-01-28 17:19:00,29.4,27.4,30.14,WSW,237,0.0,2.0,92,0.00,,---,0.00,VWS V14.01,2013-01-28 22:19:00,
2013-01-28 17:20:00,29.4,27.4,30.14,WSW,237,0.0,2.0,92,0.00,,---,0.00,VWS V14.01,2013-01-28 22:20:00,
2013-01-28 17:24:00,29.4,27.4,30.14,WSW,237,0.0,0.0,92,0.00,,---,0.00,VWS V14.01,2013-01-28 22:24:00,
2013-01-28 17:25:00,29.3,27.3,30.14,WSW,237,1.0,2.0,92,0.00,,---,0.00,VWS V14.01,2013-01-28 22:25:00,
2013-01-28 17:29:00,29.3,27.3,30.14,WSW,237,0.0,1.0,92,0.00,,---,0.00,VWS V14.01,2013-01-28 22:29:00,
2013-01-28 17:30:00,29.3,27.3,30.13,WSW,237,0.0,2.0,92,0.00,,---,0.00,VWS V14.01,2013-01-28 22:30:00,
2013-01-28 17:34:00,29.3,27.3,30.13,WSW,237,0.0,0.0,92,0.00,,---,0.00,VWS V14.01,2013-01-28 22:34:00,
2013-01-28 17:35:00,29.3,27.3,30.13,WSW,237,0.0,2.0,92,0.00,,---,0.00,VWS V14.01,2013-01-28 22:35:00,
2013-01-28 17:39:00,29.3,27.3,30.13,WSW,237,1.0,2.0,92,0.00,,---,0.00,VWS V14.01,2013-01-28 22:39:00,
2013-01-28 17:40:00,29.3,27.3,30.13,WSW,237,1.0,3.0,92,0.00,,---,0.00,VWS V14.01,2013-01-28 22:40:00,
2013-01-28 17:44:00,29.1,27.1,30.13,WSW,237,0.0,1.0,92,0.00,,---,0.00,VWS V14.01,2013-01-28 22:44:00,
2013-01-28 17:45:00,29.1,27.1,30.12,NNW,336,2.0,3.0,92,0.00,,---,0.00,VWS V14.01,2013-01-28 22:45:00,
2013-01-28 17:49:00,29.1,27.1,30.12,NNW,336,0.0,2.0,92,0.00,,---,0.00,VWS V14.01,2013-01-28 22:49:00,
2013-01-28 17:50:00,29.1,27.1,30.12,NNW,336,0.0,2.0,92,0.00,,---,0.00,VWS V14.01,2013-01-28 22:50:00,
2013-01-28 17:54:00,29.1,27.1,30.12,NNW,336,0.0,1.0,92,0.00,,---,0.00,VWS V14.01,2013-01-28 22:54:00,
2013-01-28 17:55:00,29.1,27.1,30.12,NNW,336,1.0,2.0,92,0.00,,---,0.00,VWS V14.01,2013-01-28 22:55:00,
2013-01-28 17:59:00,29.1,27.3,30.12,NNW,336,2.0,2.0,93,0.00,,---,0.00,VWS V14.01,2013-01-28 22:59:00,
2013-01-28 18:00:00,29.1,27.3,30.11,NNW,336,2.0,2.0,93,0.00,,---,0.00,VWS V14.01,2013-01-28 23:00:00,
2013-01-28 18:04:00,29.1,27.3,30.11,NNW,336,0.0,2.0,93,0.00,,---,0.00,VWS V14.01,2013-01-28 23:04:00,
2013-01-28 18:05:00,29.1,27.3,30.11,NNW,336,1.0,2.0,93,0.00,,---,0.00,VWS V14.01,2013-01-28 23:05:00,
2013-01-28 18:09:00,29.1,27.3,30.11,NNW,339,3.0,3.0,93,0.00,,---,0.00,VWS V14.01,2013-01-28 23:09:00,
2013-01-28 18:10:00,29.1,27.3,30.11,East,88,3.0,5.0,93,0.00,,---,0.00,VWS V14.01,2013-01-28 23:10:00,
2013-01-28 18:14:00,29.1,27.3,30.11,East,92,2.0,3.0,93,0.00,,---,0.00,VWS V14.01,2013-01-28 23:14:00,
2013-01-28 18:15:00,29.1,27.3,30.09,East,92,0.0,3.0,93,0.00,,---,0.00,VWS V14.01,2013-01-28 23:15:00,
2013-01-28 18:19:00,29.1,27.3,30.09,East,93,2.0,3.0,93,0.00,,---,0.00,VWS V14.01,2013-01-28 23:19:00,
2013-01-28 18:20:00,29.1,27.3,30.09,East,93,0.0,3.0,93,0.00,,---,0.00,VWS V14.01,2013-01-28 23:20:00,
2013-01-28 18:24:00,29.0,27.2,30.09,East,93,0.0,0.0,93,0.00,,---,0.00,VWS V14.01,2013-01-28 23:24:00,
2013-01-28 18:25:00,29.0,27.2,30.09,East,93,1.0,2.0,93,0.00,,---,0.00,VWS V14.01,2013-01-28 23:25:00,
2013-01-28 18:29:00,29.1,27.3,30.09,East,89,5.0,5.0,93,0.00,,---,0.00,VWS V14.01,2013-01-28 23:29:00,
2013-01-28 18:30:00,29.1,27.3,30.10,East,89,0.0,5.0,93,0.00,,---,0.00,VWS V14.01,2013-01-28 23:30:00,
2013-01-28 18:34:00,29.1,27.3,30.10,East,89,0.0,0.0,93,0.00,,---,0.00,VWS V14.01,2013-01-28 23:34:00,
2013-01-28 18:35:00,29.0,27.2,30.10,East,89,0.0,0.0,93,0.00,,---,0.00,VWS V14.01,2013-01-28 23:35:00,
2013-01-28 18:39:00,29.0,27.2,30.10,East,96,5.0,5.0,93,0.00,,---,0.00,VWS V14.01,2013-01-28 23:39:00,
2013-01-28 18:40:00,29.0,27.2,30.10,East,96,0.0,5.0,93,0.00,,---,0.00,VWS V14.01,2013-01-28 23:40:00,
2013-01-28 18:44:00,29.0,27.2,30.10,East,96,2.0,3.0,93,0.00,,---,0.00,VWS V14.01,2013-01-28 23:44:00,
2013-01-28 18:45:00,29.0,27.2,30.08,East,96,2.0,3.0,93,0.00,,---,0.00,VWS V14.01,2013-01-28 23:45:00,
2013-01-28 18:49:00,29.0,27.5,30.08,East,96,0.0,2.0,94,0.00,,---,0.00,VWS V14.01,2013-01-28 23:49:00,
2013-01-28 18:50:00,29.0,27.5,30.08,East,96,0.0,2.0,94,0.00,,---,0.00,VWS V14.01,2013-01-28 23:50:00,
2013-01-28 18:54:00,29.0,27.5,30.08,East,96,0.0,0.0,94,0.00,,---,0.00,VWS V14.01,2013-01-28 23:54:00,
2013-01-28 18:55:00,29.0,27.5,30.08,East,96,0.0,2.0,94,0.00,,---,0.00,VWS V14.01,2013-01-28 23:55:00,
2013-01-28 18:59:00,29.0,27.5,30.08,East,96,1.0,2.0,94,0.00,,---,0.00,VWS V14.01,2013-01-28 23:59:00,
2013-01-28 19:00:00,29.0,27.5,30.08,East,96,1.0,3.0,94,0.00,,---,0.00,VWS V14.01,2013-01-29 00:00:00,
2013-01-28 19:04:00,29.0,27.5,30.08,East,99,2.0,3.0,94,0.00,,---,0.00,VWS V14.01,2013-01-29 00:04:00,
2013-01-28 19:05:00,29.0,27.5,30.08,East,99,2.0,3.0,94,0.00,,---,0.00,VWS V14.01,2013-01-29 00:05:00,
2013-01-28 19:09:00,29.0,27.5,30.08,East,99,2.0,2.0,94,0.00,,---,0.00,VWS V14.01,2013-01-29 00:09:00,
2013-01-28 19:10:00,29.0,27.5,30.08,East,99,2.0,2.0,94,0.00,,---,0.00,VWS V14.01,2013-01-29 00:10:00,
2013-01-28 19:14:00,29.0,27.5,30.08,East,99,0.0,4.0,94,0.00,,---,0.00,VWS V14.01,2013-01-29 00:14:00,
2013-01-28 19:15:00,29.0,27.5,30.08,East,99,0.0,4.0,94,0.00,,---,0.00,VWS V14.01,2013-01-29 00:15:00,
2013-01-28 19:19:00,29.0,27.5,30.08,East,99,2.0,2.0,94,0.00,,---,0.00,VWS V14.01,2013-01-29 00:19:00,
2013-01-28 19:20:00,29.1,27.6,30.08,East,99,1.0,2.0,94,0.00,,---,0.00,VWS V14.01,2013-01-29 00:20:00,
2013-01-28 19:24:00,29.1,27.6,30.08,East,99,2.0,5.0,94,0.00,,---,0.00,VWS V14.01,2013-01-29 00:24:00,
2013-01-28 19:25:00,29.1,27.6,30.08,East,99,1.0,5.0,94,0.00,,---,0.00,VWS V14.01,2013-01-29 00:25:00,
2013-01-28 19:29:00,29.1,27.6,30.08,East,99,1.0,3.0,94,0.00,,---,0.00,VWS V14.01,2013-01-29 00:29:00,
2013-01-28 19:30:00,29.1,27.6,30.07,East,99,2.0,3.0,94,0.00,,---,0.00,VWS V14.01,2013-01-29 00:30:00,
2013-01-28 19:34:00,29.3,27.8,30.07,East,99,1.0,3.0,94,0.00,,---,0.00,VWS V14.01,2013-01-29 00:34:00,
2013-01-28 19:35:00,29.3,27.8,30.07,East,99,2.0,3.0,94,0.00,,---,0.00,VWS V14.01,2013-01-29 00:35:00,
2013-01-28 19:39:00,29.3,27.8,30.07,East,99,0.0,2.0,94,0.00,,---,0.00,VWS V14.01,2013-01-29 00:39:00,
2013-01-28 19:40:00,29.3,27.8,30.07,East,99,1.0,2.0,94,0.00,,---,0.00,VWS V14.01,2013-01-29 00:40:00,
2013-01-28 19:44:00,29.4,27.9,30.07,East,99,0.0,3.0,94,0.00,,---,0.00,VWS V14.01,2013-01-29 00:44:00,
2013-01-28 19:45:00,29.4,28.1,30.07,East,99,1.0,3.0,95,0.00,,---,0.00,VWS V14.01,2013-01-29 00:45:00,
2013-01-28 19:49:00,29.4,28.1,30.07,East,99,1.0,2.0,95,0.00,,---,0.00,VWS V14.01,2013-01-29 00:49:00,
2013-01-28 19:50:00,29.4,28.1,30.07,East,99,0.0,2.0,95,0.00,,---,0.00,VWS V14.01,2013-01-29 00:50:00,
2013-01-28 19:54:00,29.5,28.2,30.07,East,99,0.0,2.0,95,0.00,,---,0.00,VWS V14.01,2013-01-29 00:54:00,
2013-01-28 19:55:00,29.5,28.2,30.07,East,99,0.0,2.0,95,0.00,,---,0.00,VWS V14.01,2013-01-29 00:55:00,
2013-01-28 19:59:00,29.5,28.2,30.07,East,99,0.0,1.0,95,0.00,,---,0.00,VWS V14.01,2013-01-29 00:59:00,
2013-01-28 20:00:00,29.5,28.2,30.06,East,99,0.0,1.0,95,0.00,,---,0.00,VWS V14.01,2013-01-29 01:00:00,
2013-01-28 20:04:00,29.5,28.2,30.06,East,99,0.0,0.0,95,0.00,,---,0.00,VWS V14.01,2013-01-29 01:04:00,
2013-01-28 20:05:00,29.7,28.5,30.06,North,0,0.0,0.0,95,0.00,,---,0.00,VWS V14.01,2013-01-29 01:05:00,
2013-01-28 20:10:00,29.7,28.5,30.06,East,90,0.0,2.0,95,0.00,,---,0.00,VWS V14.01,2013-01-29 01:10:00,
2013-01-28 20:15:00,29.8,28.5,30.04,East,90,2.0,3.0,95,0.00,,---,0.00,VWS V14.01,2013-01-29 01:15:00,
2013-01-28 20:20:00,29.8,28.5,30.04,East,90,0.0,3.0,95,0.00,,---,0.00,VWS V14.01,2013-01-29 01:20:00,
2013-01-28 20:25:00,30.0,28.7,30.04,East,90,1.0,3.0,95,0.00,,---,0.00,VWS V14.01,2013-01-29 01:25:00,
2013-01-28 20:30:00,30.0,28.7,30.03,East,90,1.0,2.0,95,0.00,,---,0.00,VWS V14.01,2013-01-29 01:30:00,
2013-01-28 20:35:00,30.1,28.8,30.03,East,90,0.0,2.0,95,0.00,,---,0.00,VWS V14.01,2013-01-29 01:35:00,
2013-01-28 20:40:00,30.1,28.8,30.03,East,90,1.0,2.0,95,0.00,,---,0.00,VWS V14.01,2013-01-29 01:40:00,
2013-01-28 20:45:00,30.1,28.8,30.04,East,90,1.0,2.0,95,0.00,,---,0.00,VWS V14.01,2013-01-29 01:45:00,
2013-01-28 20:50:00,30.1,28.8,30.04,East,90,0.0,0.0,95,0.00,,---,0.00,VWS V14.01,2013-01-29 01:50:00,
2013-01-28 20:55:00,30.3,29.0,30.04,East,90,1.0,2.0,95,0.00,,---,0.00,VWS V14.01,2013-01-29 01:55:00,
2013-01-28 21:00:00,30.3,29.0,30.04,East,90,0.0,1.0,95,0.00,,---,0.00,VWS V14.01,2013-01-29 02:00:00,
2013-01-28 21:05:00,30.3,29.3,30.04,East,90,0.0,0.0,96,0.00,,---,0.00,VWS V14.01,2013-01-29 02:05:00,
2013-01-28 21:10:00,30.3,29.3,30.04,East,90,1.0,2.0,96,0.00,,---,0.00,VWS V14.01,2013-01-29 02:10:00,
2013-01-28 21:15:00,30.3,29.3,30.02,East,90,0.0,0.0,96,0.00,,---,0.00,VWS V14.01,2013-01-29 02:15:00,
2013-01-28 21:20:00,30.3,29.3,30.02,East,90,0.0,0.0,96,0.00,,---,0.00,VWS V14.01,2013-01-29 02:20:00,
2013-01-28 21:25:00,30.4,29.4,30.02,East,90,0.0,0.0,96,0.00,,---,0.00,VWS V14.01,2013-01-29 02:25:00,
2013-01-28 21:30:00,30.4,29.4,30.01,East,90,0.0,0.0,96,0.00,,---,0.00,VWS V14.01,2013-01-29 02:30:00,
2013-01-28 21:35:00,30.4,29.4,30.01,East,90,0.0,0.0,96,0.00,,---,0.00,VWS V14.01,2013-01-29 02:35:00,
2013-01-28 21:40:00,30.4,29.4,30.01,East,90,0.0,0.0,96,0.00,,---,0.00,VWS V14.01,2013-01-29 02:40:00,
2013-01-28 21:45:00,30.4,29.4,30.00,East,90,0.0,0.0,96,0.00,,---,0.00,VWS V14.01,2013-01-29 02:45:00,
2013-01-28 21:50:00,30.4,29.4,30.00,East,90,0.0,0.0,96,0.00,,---,0.00,VWS V14.01,2013-01-29 02:50:00,
2013-01-28 21:55:00,30.6,29.6,30.00,East,90,0.0,0.0,96,0.00,,---,0.00,VWS V14.01,2013-01-29 02:55:00,
2013-01-28 22:00:00,30.6,29.6,30.00,East,90,0.0,0.0,96,0.00,,---,0.00,VWS V14.01,2013-01-29 03:00:00,
2013-01-28 22:05:00,30.6,29.6,30.00,East,90,0.0,0.0,96,0.00,,---,0.00,VWS V14.01,2013-01-29 03:05:00,
2013-01-28 22:10:00,30.6,29.6,30.00,East,90,0.0,0.0,96,0.00,,---,0.00,VWS V14.01,2013-01-29 03:10:00,
2013-01-28 22:15:00,30.6,29.6,30.00,East,90,0.0,0.0,96,0.00,,---,0.00,VWS V14.01,2013-01-29 03:15:00,
2013-01-28 22:20:00,30.7,29.7,30.00,East,90,0.0,0.0,96,0.00,,---,0.00,VWS V14.01,2013-01-29 03:20:00,
2013-01-28 22:25:00,30.7,29.7,30.00,East,90,0.0,2.0,96,0.00,,---,0.00,VWS V14.01,2013-01-29 03:25:00,
2013-01-28 22:30:00,30.7,29.7,30.00,East,90,0.0,0.0,96,0.00,,---,0.00,VWS V14.01,2013-01-29 03:30:00,
2013-01-28 22:35:00,30.7,29.7,30.00,East,90,0.0,0.0,96,0.00,,---,0.00,VWS V14.01,2013-01-29 03:35:00,
2013-01-28 22:40:00,30.7,29.7,30.00,East,90,0.0,0.0,96,0.00,,---,0.00,VWS V14.01,2013-01-29 03:40:00,
2013-01-28 22:45:00,30.7,29.7,29.99,East,90,0.0,0.0,96,0.00,,---,0.00,VWS V14.01,2013-01-29 03:45:00,
2013-01-28 22:50:00,30.7,29.7,29.99,East,90,0.0,0.0,96,0.00,,---,0.00,VWS V14.01,2013-01-29 03:50:00,
2013-01-28 22:55:00,30.7,29.7,29.99,East,90,0.0,0.0,96,0.00,,---,0.00,VWS V14.01,2013-01-29 03:55:00,
2013-01-28 23:00:00,30.7,29.7,30.00,East,90,0.0,0.0,96,0.00,,---,0.00,VWS V14.01,2013-01-29 04:00:00,
2013-01-28 23:05:00,30.7,29.7,30.00,East,90,0.0,0.0,96,0.00,,---,0.00,VWS V14.01,2013-01-29 04:05:00,
2013-01-28 23:10:00,30.7,29.7,30.00,East,90,0.0,0.0,96,0.00,,---,0.00,VWS V14.01,2013-01-29 04:10:00,
2013-01-28 23:15:00,30.7,29.7,30.00,East,90,0.0,0.0,96,0.00,,---,0.00,VWS V14.01,2013-01-29 04:15:00,
2013-01-28 23:20:00,30.9,29.9,30.00,East,90,0.0,0.0,96,0.00,,---,0.00,VWS V14.01,2013-01-29 04:20:00,
2013-01-28 23:25:00,30.9,29.9,30.00,East,90,0.0,0.0,96,0.00,,---,0.00,VWS V14.01,2013-01-29 04:25:00,
2013-01-28 23:30:00,30.9,29.9,30.00,East,90,0.0,0.0,96,0.00,,---,0.00,VWS V14.01,2013-01-29 04:30:00,
2013-01-28 23:35:00,30.9,29.9,30.00,East,90,0.0,1.0,96,0.00,,---,0.00,VWS V14.01,2013-01-29 04:35:00,
2013-01-28 23:40:00,30.9,29.9,30.00,East,90,0.0,0.0,96,0.00,,---,0.00,VWS V14.01,2013-01-29 04:40:00,
2013-01-28 23:45:00,30.9,29.9,30.00,East,90,0.0,0.0,96,0.00,,---,0.00,VWS V14.01,2013-01-29 04:45:00,
2013-01-28 23:50:00,30.9,29.9,30.00,East,90,0.0,0.0,96,0.00,,---,0.00,VWS V14.01,2013-01-29 04:50:00,
2013-01-28 23:55:00,30.9,29.9,30.00,East,90,0.0,0.0,96,0.00,,---,0.00,VWS V14.01,2013-01-29 04:55:00,